Regional Weather Roundup
Issued by NWS Sioux Falls, SD

Home | Current Version | Previous Version | Graphics & Text | Print | Product List | Glossary Off
Versions: 1 2 3 4 5 6 7 8 9 10 11 12 13 14 15 16 17 18 19 20 21 22 23 24 25 26 27 28 29 30 31 32 33 34 35 36 37 38 39 40 41 42 43 44 45 46 47 48 49 50

000
ASUS43 KFSD 190710
RWRFSD

WEATHER ROUNDUP FOR SE SOUTH DAKOTA/SW MINNESOTA/NW IOWA
NATIONAL WEATHER SERVICE SIOUX FALLS SD
100 AM CST MON FEB 19 2018

NOTE: "FAIR" INDICATES FEW OR NO CLOUDS BELOW 12,000 FEET WITH NO
SIGNIFICANT WEATHER AND OR OBSTRUCTIONS TO VISIBILITY.


SDZ038>040-050-052>070-190800-
SOUTHEAST SOUTH DAKOTA

CITY           SKY/WX    TMP DP  RH WIND       PRES   REMARKS
BROOKINGS      FLURRIES  13   9  84 N20G25    29.81R WCI  -5
CHAMBERLAIN    LGT SNOW  13  10  87 NW15G24   29.93F WCI  -3
HURON          CLOUDY    12   7  80 N28G40    29.89S WCI  -9
MADISON        FLURRIES  14  14 100 N24G35    29.79R WCI  -5
MITCHELL       FLURRIES  14   9  80 N21G30    29.89R WCI  -4
SIOUX FALLS    CLOUDY    19  14  81 N12G24    29.79R WCI   7
WINNER         LGT SNOW  13   8  81 N20G28    29.91R WCI  -5
YANKTON        CLOUDY    21  17  84 N21       29.78S WCI   5
$$

MNZ071-072-080-081-089-090-097-098-190800-
SOUTHWEST MINNESOTA

CITY           SKY/WX    TMP DP  RH WIND       PRES   REMARKS
FAIRMONT       CLOUDY    23  19  85 N23       29.74S WCI   7
JACKSON        CLOUDY    21  18  86 VRB20G26  29.73F WCI   6
LUVERNE        CLOUDY    19  14  79 N13G23    29.78R WCI   7
MARSHALL       CLOUDY    15  11  83 N22G29    29.83R WCI  -3
MONTEVIDEO     CLOUDY    18  12  79 N15       29.86R WCI   3
PIPESTONE      CLOUDY    14  10  85 NE17G30   29.75S WCI  -3
REDWOOD FALLS  CLOUDY    21  15  78 N12       29.80S WCI   9
TRACY          CLOUDY    18  15  88 N16       29.80S WCI   3
WINDOM         CLOUDY    21   7  53 N25G33    29.74F WCI   4
WORTHINGTON    CLOUDY    19  15  84 N25G31    29.74S WCI   1
$$

IAZ001>003-012>014-020>022-031-032-NEZ013-014-SDZ071-190800-
NORTHWEST IOWA

CITY           SKY/WX    TMP DP  RH WIND       PRES   REMARKS
CHEROKEE       CLOUDY    26  22  84 N21G28    29.71F WCI  12
DENISON        CLOUDY    37  34  87 N5        29.67S
ESTHERVILLE    CLOUDY    21  17  84 N21       29.73R WCI   5
LE MARS        CLOUDY    25  21  86 N24G31    29.71F WCI   9
ORANGE CITY    CLOUDY    25  21  86 NE16G24   29.71F WCI  12
SHELDON        CLOUDY    21  19  93 NE18G29   29.74R WCI   6
SIOUX CITY     CLOUDY    27  22  81 N20G28    29.72R WCI  13
SPENCER        CLOUDY    24  19  81 N20       29.73R WCI  10
STORM LAKE     CLOUDY    30  27  86 N22       29.68S WCI  17
$$

ABBREVIATIONS USED IN REMARKS
   TC - TEMPERATURE IN CELSIUS
  WCI - WIND CHILL INDEX
   HX - HEAT INDEX
  VSB - VISIBILITY




USA.gov is the U.S. government's official web portal to all federal, state and local government web resources and services.